Temperature
14 14 14 14 14 14 15 15 15 15 15 15 15 15 15 15 15 15 15 15 15 15 14 14 14 14 14 14 15 15 14 14 14 14 14 14 14 15 15 15 15 14 14
14 14 14 14 14 14 14 14 15 15 15 15 15 15 15 15 15 15 14 14 14 14 14 14 14 14 14 14 15 14 14 14 14 14 14 14 14 14 14 14 14 14 14
14 14 14 14 14 14 14 14 14 14 14 14 14 14 14 14 14 14 14 14 14 14 14 14 14 14 14 14 14 14 14 14 14 14 14 14 14 14 14 14 14 14 14
14 14 14 14 14 14 14 14 14 14 14 14 14 14 14 14 14 14 14 14 14 14 14 14 14 14 14 14 14 14 14 14 14 14 14 14 14 13 13 13 13 13 13
14 14 14 14 14 14 14 14 14 14 14 14 14 14 14 14 14 14 14 14 14 14 14 14 14 14 14 14 14 14 13 13 13 13 13 13 13 13 13 13 13 13 13
14 14 14 14 14 14 14 13 14 14 14 13 13 13 14 14 14 14 14 14 14 14 14 14 14 13 13 13 13 13 13 13 13 13 13 13 13 13 13 13 13 13 13
14 13 14 14 14 14 14 13 13 13 13 13 13 13 13 13 13 13 14 14 14 14 14 13 13 13 13 13 13 13 13 13 13 13 13 13 13 13 13 13 12 13 13
13 13 13 13 13 13 13 13 13 13 13 13 13 13 13 13 13 13 13 13 13 13 13 13 13 13 13 13 13 13 13 13 12 13 12 12 12 12 12 12 12 12 12
13 13 13 13 13 13 13 13 13 13 13 13 13 13 13 13 13 13 13 13 13 13 13 13 13 13 13 12 13 13 12 12 12 12 12 12 12 12 12 12 12 12 12
13 13 13 12 12 13 13 13 13 13 13 13 13 13 13 13 13 13 13 13 13 13 13 13 12 12 12 12 12 12 12 12 12 11 11 11 12 12 12 12 12 11 11
12 12 12 12 12 12 12 12 12 12 12 12 12 12 12 12 12 12 12 12 12 12 12 12 12 12 12 12 12 12 12 11 11 11 11 11 11 11 11 11 11 11 11
12 12 12 12 12 12 12 12 12 12 12 12 12 12 12 12 12 12 12 12 12 12 12 12 12 12 12 12 11 11 11 11 11 11 11 11 11 11 11 11 11 11 11
12 12 12 12 12 12 12 12 12 12 12 12 12 12 12 12 12 12 12 12 12 12 12 12 12 12 11 11 11 11 11 11 11 11 10 10 10 10 10 10 10 10 10
12 11 11 11 11 11 11 11 11 11 11 11 11 11 11 11 11 12 12 12 11 11 11 11 11 11 11 11 11 10 10 10 10 10 10 10 10 10 10 10 10 10 10
11 11 11 11 11 11 11 11 11 11 11 11 11 11 11 11 11 11 11 11 11 11 11 11 11 10 10 10 10 10 10 10 10 10 10 10 10 10 9 9 9 9 9
11 11 11 11 10 10 10 10 10 10 10 10 10 10 10 10 10 11 11 11 11 11 10 10 10 10 10 10 10 9 9 9 9 9 9 9 9 9 9 9 9 9 9
11 11 11 10 10 10 10 10 10 10 10 10 10 10 10 10 10 10 10 10 10 10 10 10 10 9 9 9 9 9 9 9 9 9 9 9 9 9 9 9 8 8 8
11 10 10 10 10 10 10 9 9 9 9 9 9 9 9 9 9 9 9 9 9 9 9 9 9 9 9 9 9 9 9 9 9 9 9 9 9 9 8 8 8 8 8
10 10 10 10 9 9 9 9 9 9 9 9 9 9 9 9 9 9 9 9 9 9 9 9 9 9 9 8 8 8 8 8 8 8 8 8 8 8 8 8 8 8 8
10 10 9 9 9 9 9 8 8 8 8 8 8 8 8 8 8 8 8 8 8 8 8 8 8 8 8 8 8 8 8 8 8 8 8 8 8 7 7 7 7 7 7
9 9 9 9 8 8 8 8 8 8 8 8 8 8 8 8 8 8 8 8 8 8 8 8 8 8 8 7 7 7 7 7 7 7 7 7 7 7 7 7 7 7 7
9 9 9 8 8 8 8 8 8 8 7 7 7 7 7 7 7 7 7 7 7 7 7 7 7 7 7 7 6 6 6 6 7 7 7 7 7 6 6 6 6 6 6
9 8 8 8 8 8 7 7 7 7 7 7 7 7 7 7 7 7 7 7 7 7 7 7 7 7 7 7 6 6 6 6 6 6 6 6 6 6 6 6 6 6 6
8 8 8 8 8 7 7 7 7 7 7 7 7 7 6 6 6 6 6 6 6 6 6 6 6 6 6 6 6 6 6 6 6 5 6 6 6 6 6 6 6 5 5
8 8 8 7 7 7 7 6 6 6 6 6 6 6 6 6 6 6 6 6 6 6 6 6 6 6 6 6 6 6 6 5 5 5 5 5 5 5 5 5 5 5 5
8 7 7 7 7 7 6 6 6 6 6 6 6 6 6 6 6 5 5 5 5 5 5 5 5 5 5 5 5 5 5 5 5 5 5 5 5 5 5 5 5 4 4
Wind_Speed
3 5 9 10 11 11 12 12 11 11 11 11 12 12 12 11 11 11 11 11 10 10 11 11 11 11 12 12 12 12 13 12 12 12 12 12 12 12 12 12 11 11 12
6 9 11 10 11 12 12 12 12 11 11 11 11 11 11 11 11 11 11 11 11 11 10 10 10 11 11 11 11 12 12 11 11 11 11 11 11 11 11 11 11 10 11
8 10 11 11 12 12 12 12 12 12 11 10 10 10 10 10 10 10 10 10 10 10 10 10 10 10 11 11 11 11 11 11 11 10 10 10 10 11 10 10 11 11 11
10 10 10 11 12 12 12 12 11 12 11 11 11 10 10 10 10 10 10 10 10 9 9 10 10 10 10 11 10 10 11 11 11 10 9 9 8 9 9 10 10 10 10
9 10 10 11 11 11 11 11 11 11 11 10 10 10 10 9 9 9 9 10 9 9 9 9 9 9 10 9 9 10 10 10 10 10 9 8 7 9 9 9 9 9 9
8 10 10 11 11 11 11 11 11 10 10 10 10 9 9 9 9 9 9 9 9 9 9 8 9 9 9 9 9 9 9 9 10 9 8 8 7 8 8 8 8 8 8
7 9 9 10 10 10 10 10 9 9 9 9 9 9 9 8 8 9 8 8 8 8 8 8 8 8 8 8 8 9 9 9 9 8 8 7 7 7 7 7 7 7 7
7 8 8 9 10 10 10 9 9 8 8 8 8 9 8 8 8 8 8 7 7 7 8 8 8 8 7 8 8 8 8 8 8 7 7 6 6 6 6 7 7 7 7
8 7 7 8 8 8 9 9 8 8 8 8 8 8 8 8 8 8 7 7 7 7 7 7 7 7 7 7 8 8 8 9 8 6 6 6 6 6 7 7 7 7 7
6 6 6 7 7 6 7 8 8 7 7 8 8 8 7 7 7 7 7 6 7 7 7 6 7 7 7 7 7 8 8 8 7 6 5 5 5 6 6 6 6 6 6
5 4 5 5 6 6 6 6 7 7 7 7 7 7 7 7 6 6 6 6 6 6 6 6 6 7 7 7 7 7 8 7 6 5 5 4 4 5 5 5 5 5 5
4 3 3 4 5 6 5 5 5 5 6 6 5 5 6 6 5 5 5 6 6 6 5 5 6 6 6 6 5 6 7 7 6 5 4 4 4 3 4 5 4 4 4
5 4 3 4 5 5 4 5 4 4 4 4 4 5 5 5 4 5 4 5 5 5 5 5 5 5 5 4 5 5 5 6 5 4 5 4 3 3 4 4 4 4 3
5 4 3 4 4 4 4 4 3 3 3 3 3 3 4 4 3 3 3 3 3 3 4 4 3 4 4 4 4 4 5 5 4 4 4 5 3 3 3 3 2 2 3
5 4 4 4 4 4 4 3 3 2 3 3 2 2 3 3 3 3 2 3 3 3 3 3 3 3 4 4 3 4 4 4 4 4 4 5 4 4 3 3 3 2 2
6 6 5 5 4 4 3 2 2 2 2 2 2 2 3 3 3 3 2 2 2 2 3 3 3 3 3 3 3 3 3 3 3 4 4 4 5 4 4 4 3 2 2
6 5 5 5 4 4 3 3 3 2 2 2 2 2 2 3 3 3 2 2 1 2 3 3 3 3 2 2 2 2 2 2 2 3 3 4 4 4 4 4 3 2 2
5 5 5 4 4 4 3 3 3 3 3 2 2 2 2 2 3 3 2 2 1 2 3 2 2 1 1 1 0 1 1 1 1 2 3 3 3 3 4 4 4 3 3
5 6 5 4 5 4 4 3 3 3 2 2 2 2 2 2 3 3 2 2 2 2 2 2 1 1 1 1 0 0 0 0 1 1 2 2 2 2 2 3 4 4 3
4 5 5 5 5 4 3 2 2 2 1 2 2 2 3 3 3 3 2 2 3 2 1 1 1 1 0 1 0 1 1 1 0 1 1 1 1 1 1 1 2 3 3
3 4 5 4 4 4 3 3 2 2 2 1 1 2 3 3 3 3 2 2 3 2 1 1 1 1 1 0 1 1 2 2 1 1 1 1 0 1 1 0 0 1 2
4 4 4 5 4 4 4 3 2 2 2 2 2 2 3 3 3 3 3 3 2 2 1 1 1 1 0 0 1 1 0 2 2 1 1 1 1 0 1 1 1 1 1
4 5 4 5 4 4 3 2 1 1 1 0 1 2 2 3 3 3 4 4 3 3 3 2 2 2 1 1 0 2 2 3 2 2 1 1 1 1 1 1 1 2 2
6 5 5 5 4 4 4 4 5 3 3 4 3 2 2 3 4 3 4 4 4 3 3 3 2 1 2 2 1 1 1 2 1 1 2 2 2 2 2 2 2 2 2
5 5 4 4 4 4 4 5 5 4 3 2 2 2 2 2 3 4 4 3 3 3 3 3 2 2 2 2 2 1 0 1 1 2 2 3 2 2 2 2 2 2 3
3 4 4 4 4 4 5 5 6 6 4 3 3 4 3 2 2 3 4 3 3 3 4 3 3 3 2 2 2 2 1 1 1 1 2 3 3 3 3 2 2 2 3
Wind_Direction
151 138 127 117 110 106 103 99 98 97 95 94 92 92 91 91 91 89 89 85 82 81 80 81 84 84 81 79 77 76 73 72 73 73 73 77 79 79 79 77 75 73 78
141 132 123 117 111 107 104 100 97 97 97 95 93 94 94 93 90 88 88 88 85 83 82 81 83 83 81 79 78 77 75 71 71 71 69 72 77 78 77 76 75 75 79
125 126 123 119 113 107 104 100 97 97 98 96 95 94 95 94 90 90 89 87 86 85 83 82 81 83 81 78 76 76 76 73 69 66 65 66 75 79 80 78 77 76 77
121 122 123 120 116 112 107 102 97 96 95 95 94 92 93 94 92 89 89 87 87 86 84 83 82 84 82 79 75 76 74 71 66 62 61 62 69 79 82 83 81 78 78
113 118 123 122 119 115 110 106 101 98 95 94 92 90 88 90 93 90 88 86 86 83 82 83 84 86 84 80 78 77 74 67 62 58 58 59 66 78 81 84 84 82 82
110 116 122 124 123 118 115 110 104 100 96 92 91 88 88 89 90 90 89 89 87 86 83 84 86 88 85 83 82 78 77 72 65 64 62 63 66 77 80 84 86 84 85
114 118 124 122 121 118 117 114 109 106 100 94 91 89 84 85 88 89 88 89 89 90 88 88 92 87 82 84 85 80 77 72 69 70 72 70 72 78 80 82 86 86 87
118 119 122 121 119 118 115 113 112 110 104 99 95 90 85 82 87 90 86 85 88 90 92 93 95 90 82 82 82 78 73 67 67 71 72 75 78 81 82 86 85 84 81
106 108 107 112 115 116 116 111 111 112 106 99 96 92 87 83 82 86 87 90 89 92 92 92 95 96 88 82 79 72 67 65 69 69 68 75 78 81 79 82 87 87 85
93 96 96 100 104 106 111 109 105 104 103 98 93 89 86 84 81 83 83 87 88 87 89 91 91 96 90 82 76 69 63 63 62 62 65 78 82 80 77 76 84 87 90
100 94 98 98 95 97 104 106 104 100 97 96 95 91 85 81 80 81 82 82 83 87 89 90 91 89 84 78 76 67 60 59 59 55 60 73 82 79 76 79 82 88 94
133 120 101 103 100 97 101 98 94 95 95 95 94 93 95 92 87 87 84 81 81 85 85 89 88 80 74 66 63 63 63 59 55 46 50 62 81 87 81 76 85 93 98
157 140 122 113 110 104 103 102 97 100 98 102 100 97 103 98 93 88 82 76 79 80 81 82 80 76 76 72 65 62 64 64 56 44 40 48 67 89 89 77 83 85 96
154 155 148 129 120 113 114 112 105 100 103 103 108 112 114 107 101 96 94 93 88 88 87 85 80 78 82 86 83 73 65 64 58 48 39 37 46 70 77 76 94 104 94
159 161 161 141 132 131 122 122 113 112 119 117 115 129 132 126 133 119 109 104 102 97 97 97 93 91 90 87 83 82 73 69 63 51 37 35 48 62 61 64 72 83 81
169 170 167 159 145 136 131 126 129 133 130 126 134 145 147 138 136 138 130 115 111 118 112 109 106 100 95 94 80 78 80 75 70 61 48 43 36 38 43 44 40 45 49
174 166 166 164 152 147 145 146 136 138 130 131 146 157 148 144 145 137 137 137 135 127 117 104 98 95 90 84 67 58 74 79 77 80 77 66 51 33 28 24 21 20 355
171 166 169 166 162 158 154 154 144 138 133 136 152 154 148 151 145 134 136 150 141 118 112 117 114 113 110 104 63 34 69 86 80 80 93 83 72 51 28 18 9 5 360
170 168 168 167 168 169 157 151 145 142 147 148 143 148 158 158 153 137 144 144 138 117 121 130 115 140 142 139 312 0 356 22 118 106 100 98 95 74 46 21 10 357 355
165 165 164 169 171 164 150 140 135 132 136 147 155 167 170 168 165 149 140 137 128 118 102 123 120 78 135 176 94 353 331 302 184 164 165 118 117 124 100 45 22 351 343
154 159 166 166 174 164 164 171 177 196 213 217 189 189 177 172 171 160 153 150 144 144 176 163 132 93 27 32 78 1 338 326 317 264 210 160 130 163 138 159 25 349 329
177 177 172 177 181 183 189 193 191 191 208 213 210 203 191 175 179 179 165 169 167 165 164 173 154 147 18 37 141 129 330 326 316 294 229 202 223 1 329 271 229 251 288
190 194 193 188 188 191 186 166 140 102 74 231 242 236 213 191 184 186 181 174 172 176 188 191 183 171 190 279 210 167 171 219 289 294 275 241 237 239 286 302 277 273 266
205 199 195 194 192 195 185 181 178 189 211 227 227 230 232 201 191 192 188 180 179 178 188 197 191 199 178 206 267 292 221 173 182 273 289 281 278 264 263 293 295 283 280
203 198 197 196 202 201 193 192 194 206 219 227 221 217 233 222 202 195 188 183 183 179 186 189 195 194 192 197 196 204 302 345 175 192 261 289 303 283 271 268 264 271 277
202 195 194 196 210 205 198 197 200 206 208 208 220 218 226 235 222 204 191 187 193 187 190 193 197 192 201 203 199 192 194 201 218 191 230 254 272 283 287 277 260 269 275
Height
1537 1537 1538 1538 1539 1539 1539 1539 1539 1539 1540 1540 1540 1539 1539 1539 1539 1538 1538 1538 1538 1537 1537 1537 1536 1536 1536 1535 1535 1535 1535 1535 1535 1535 1535 1535 1535 1535 1535 1535 1535 1535 1534
1536 1537 1538 1539 1539 1539 1539 1539 1540 1540 1540 1540 1540 1540 1540 1540 1539 1539 1539 1539 1538 1538 1538 1537 1537 1537 1536 1536 1536 1536 1536 1536 1536 1536 1536 1536 1536 1536 1536 1536 1536 1536 1536
1536 1537 1538 1539 1539 1540 1540 1540 1540 1540 1540 1540 1540 1540 1540 1540 1540 1540 1539 1539 1539 1539 1538 1538 1537 1537 1537 1537 1536 1536 1536 1536 1536 1537 1537 1537 1537 1537 1537 1537 1537 1536 1536
1536 1537 1538 1539 1539 1540 1540 1540 1540 1540 1540 1541 1541 1541 1541 1541 1540 1540 1540 1540 1539 1539 1539 1538 1538 1537 1537 1537 1537 1537 1537 1537 1537 1537 1537 1537 1537 1537 1537 1537 1537 1537 1537
1536 1537 1538 1539 1539 1540 1540 1540 1540 1540 1540 1541 1541 1541 1541 1541 1541 1540 1540 1540 1539 1539 1538 1538 1538 1538 1537 1537 1537 1537 1537 1537 1537 1537 1537 1537 1537 1537 1537 1537 1537 1537 1537
1536 1537 1538 1538 1539 1539 1540 1540 1540 1540 1540 1540 1541 1541 1541 1540 1540 1540 1540 1540 1539 1539 1538 1538 1538 1538 1537 1537 1537 1537 1537 1537 1537 1537 1537 1537 1537 1537 1537 1537 1537 1537 1537
1536 1537 1538 1538 1539 1539 1539 1540 1540 1540 1540 1540 1540 1540 1540 1540 1540 1540 1540 1539 1539 1539 1538 1538 1538 1538 1537 1537 1537 1537 1537 1537 1537 1537 1537 1537 1537 1537 1537 1537 1537 1537 1537
1536 1537 1537 1538 1538 1539 1539 1539 1540 1540 1540 1540 1540 1540 1540 1540 1540 1539 1539 1539 1539 1538 1538 1538 1538 1538 1537 1537 1537 1537 1537 1537 1537 1537 1537 1537 1537 1537 1537 1537 1537 1537 1537
1536 1536 1537 1537 1538 1538 1538 1539 1539 1539 1539 1539 1539 1540 1540 1539 1539 1539 1539 1539 1538 1538 1538 1538 1537 1537 1537 1537 1537 1537 1537 1537 1537 1537 1536 1537 1537 1537 1537 1537 1536 1536 1536
1535 1536 1536 1536 1537 1537 1538 1538 1538 1539 1539 1539 1539 1539 1539 1539 1539 1538 1538 1538 1538 1538 1537 1537 1537 1537 1537 1536 1536 1536 1536 1536 1536 1536 1536 1536 1536 1536 1536 1536 1536 1536 1535
1534 1535 1535 1535 1536 1536 1537 1537 1538 1538 1538 1538 1538 1538 1538 1538 1538 1538 1537 1537 1537 1537 1537 1536 1536 1536 1536 1535 1536 1536 1536 1535 1535 1536 1536 1536 1536 1536 1535 1535 1535 1535 1535
1532 1533 1533 1534 1534 1535 1535 1536 1536 1537 1537 1537 1537 1537 1537 1537 1537 1537 1537 1536 1536 1536 1536 1536 1535 1535 1535 1535 1535 1535 1535 1535 1535 1535 1535 1535 1535 1535 1534 1534 1534 1533 1533
1530 1531 1531 1532 1533 1533 1534 1534 1535 1535 1535 1536 1536 1536 1536 1536 1536 1536 1535 1535 1535 1535 1535 1534 1534 1534 1534 1534 1534 1534 1534 1533 1533 1534 1533 1533 1533 1533 1533 1532 1532 1532 1532
1528 1529 1530 1530 1531 1531 1532 1533 1533 1533 1533 1534 1534 1534 1534 1534 1534 1534 1534 1534 1534 1534 1533 1533 1533 1532 1532 1533 1532 1532 1533 1532 1533 1532 1532 1532 1532 1532 1532 1531 1531 1531 1530
1526 1527 1528 1529 1529 1530 1530 1531 1531 1531 1532 1532 1532 1532 1532 1532 1532 1532 1532 1532 1532 1532 1532 1532 1531 1531 1531 1531 1531 1531 1531 1531 1531 1531 1531 1530 1530 1530 1530 1530 1529 1529 1529
1524 1525 1526 1526 1527 1528 1528 1528 1529 1529 1529 1530 1530 1530 1530 1531 1530 1530 1530 1530 1530 1530 1530 1530 1530 1530 1529 1529 1530 1530 1530 1529 1529 1529 1529 1529 1528 1528 1528 1528 1528 1528 1527
1522 1523 1523 1524 1525 1526 1526 1526 1527 1527 1527 1527 1528 1528 1528 1528 1528 1528 1528 1528 1528 1528 1528 1528 1528 1528 1528 1528 1528 1528 1528 1528 1528 1528 1528 1527 1527 1526 1527 1527 1526 1526 1526
1520 1521 1521 1522 1522 1523 1524 1524 1524 1525 1525 1525 1525 1526 1526 1526 1526 1526 1526 1526 1526 1526 1526 1526 1525 1526 1526 1526 1526 1526 1526 1527 1526 1526 1526 1526 1525 1525 1525 1525 1524 1524 1524
1517 1518 1519 1519 1520 1520 1521 1521 1522 1522 1523 1523 1523 1523 1523 1524 1524 1524 1524 1524 1524 1523 1523 1523 1523 1524 1524 1524 1524 1524 1524 1524 1524 1524 1524 1524 1524 1523 1523 1523 1523 1523 1522
1514 1515 1516 1517 1517 1518 1518 1519 1519 1519 1520 1520 1520 1521 1521 1521 1521 1521 1521 1521 1521 1521 1521 1521 1521 1521 1522 1522 1522 1522 1522 1522 1522 1522 1522 1522 1522 1521 1521 1521 1521 1520 1520
1511 1512 1513 1513 1514 1515 1515 1515 1515 1516 1516 1517 1517 1518 1518 1518 1518 1518 1518 1518 1518 1518 1518 1518 1519 1519 1519 1519 1520 1519 1520 1520 1520 1520 1519 1519 1519 1519 1519 1519 1518 1518 1518
1508 1509 1509 1510 1511 1511 1512 1513 1513 1513 1513 1514 1514 1514 1514 1515 1515 1515 1515 1515 1515 1515 1515 1516 1516 1516 1516 1517 1518 1517 1517 1518 1517 1517 1517 1517 1517 1517 1517 1516 1516 1516 1515
1505 1506 1506 1507 1508 1508 1509 1510 1510 1510 1510 1510 1510 1511 1511 1511 1511 1511 1511 1512 1512 1512 1512 1512 1513 1513 1513 1514 1515 1516 1515 1514 1514 1514 1514 1515 1515 1514 1514 1514 1513 1513 1512
1502 1503 1503 1504 1504 1505 1505 1505 1505 1505 1505 1505 1506 1507 1507 1507 1507 1507 1508 1508 1508 1508 1509 1509 1510 1510 1511 1511 1512 1512 1513 1512 1513 1512 1512 1512 1512 1511 1511 1511 1510 1510 1510
1499 1499 1500 1500 1501 1501 1501 1501 1502 1502 1502 1503 1503 1503 1503 1504 1504 1503 1504 1504 1504 1504 1505 1506 1506 1507 1507 1508 1508 1508 1509 1509 1509 1509 1508 1509 1509 1509 1508 1508 1507 1507 1506
1495 1496 1496 1496 1497 1497 1497 1497 1498 1498 1498 1498 1499 1499 1499 1499 1499 1499 1500 1500 1500 1501 1501 1502 1503 1503 1504 1504 1505 1505 1506 1506 1506 1506 1505 1505 1505 1505 1505 1505 1504 1504 1503